Header for Extended Forecast Station List Page

Search by: ID | Name | Date | Parm | Value | Avg | % Avg
Sort by: ID | Name | Date | Parm | Value | Avg | % Avg

Enter search or view all records.

Click on id for station plot
#IDNameDateParmValueAvg% Avg
0LEOI1KOOTENAI-AT LEONIA02-22-2021DISCHARGE (KAF)46293933118
1FCFM8NF FLATHEAD-NEAR COLUMBIA FALLS02-22-2021DISCHARGE (KAF)1053121986
2WGCM8MF FLATHEAD-NEAR WEST GLACIER02-22-2021DISCHARGE (KAF)1176119199
3CFMM8FLATHEAD-AT COLUMBIA FALLS02-22-2021DISCHARGE (KAF)33523347100
4DLGM8CLARK FORK-AT DEER LODGE02-22-2021DISCHARGE (KAF)8484100
5DRMM8CLARK FORK-NR DRUMMOND02-22-2021DISCHARGE (KAF)235MM
6RCCM8ROCK CREEK-NEAR CLINTON02-22-2021DISCHARGE (KAF)253199127
7BONM8BLACKFOOT-NEAR BONNER02-22-2021DISCHARGE (KAF)696653106
8ABOM8CLARK FORK-ABOVE MISSOULA02-22-2021DISCHARGE (KAF)12281189103
9BITM8BITTERROOT-NEAR MISSOULA02-22-2021DISCHARGE (KAF)1029987104
10BELM8CLARK FORK-BELOW MISSOULA02-22-2021DISCHARGE (KAF)22582201103
11STRM8ST. REGIS-NEAR ST. REGIS02-22-2021DISCHARGE (KAF)22323993
12SRGM8CLARK FORK-AT ST REGIS02-22-2021DISCHARGE (KAF)2896299097
13PRTI1PRIEST-NEAR PRIEST RIVER02-22-2021DISCHARGE (KAF)759727104
14SPOW1SPOKANE-AT SPOKANE02-22-2021DISCHARGE (KAF)2737MM
15SATI1ST MARIES-NEAR SANTA02-22-2021DISCHARGE (KAF)171151113
16CIBW1COLUMBIA-AT INTL BOUNDARY02-22-2021DISCHARGE (KAF)23861MM
17LAUW1KETTLE-AT LAURIER02-22-2021DISCHARGE (KAF)1344149090
18TONW1OKANOGAN-NEAR TONASKET02-22-2021DISCHARGE (KAF)13321197111
19PATW1METHOW-NEAR PATEROS02-22-2021DISCHARGE (KAF)878670131
20ARDW1ENTIAT-NEAR ARDENVOIR02-22-2021DISCHARGE (KAF)182147123
21PESW1WENATCHEE-AT PESHASTIN02-22-2021DISCHARGE (KAF)12641126112
22EASW1YAKIMA-AT EASTON02-22-2021DISCHARGE (KAF)135100135
23TNAW1TEANAWAY-BELOW FORKS02-22-2021DISCHARGE (KAF)203133153
24UMTW1YAKIMA-AT UMTANUM02-22-2021DISCHARGE (KAF)753644117
25CLFW1NACHES-NEAR CLIFFDEL02-22-2021DISCHARGE (KAF)375327115
26NACW1NACHES-NEAR NACHES02-22-2021DISCHARGE (KAF)557420133
27PARW1YAKIMA-NEAR PARKER02-22-2021DISCHARGE (KAF)812637127
28KIOW1YAKIMA-AT KIONA02-22-2021DISCHARGE (KAF)11281021111
29CHEI1FALL RIVER-NEAR CHESTER02-22-2021DISCHARGE (KAF)26829790
30ANTI1HENRYS FORK-AT ST. ANTHONY02-22-2021DISCHARGE (KAF)52460986
31TEAI1TETON-NEAR ST. ANTHONY02-22-2021DISCHARGE (KAF)25426396
32REXI1HENRYS FORK-AT REXBURG02-22-2021DISCHARGE (KAF)59471383
33JKSW4SNAKE-NEAR JACKSON02-22-2021DISCHARGE (KAF)890102787
34ALPW4SNAKE-NEAR ALPINE02-22-2021DISCHARGE (KAF)1162134886
35HEII1SNAKE-NEAR HEISE02-22-2021DISCHARGE (KAF)21541999108
36SIFI1SNAKE-AB EAGLE ROCK NR IDAHO FALLS02-22-2021DISCHARGE (KAF)20031988101
37SHYI1SNAKE-NEAR SHELLEY02-22-2021DISCHARGE (KAF)1865196595
38SNAI1SNAKE-AT BLACKFOOT02-22-2021DISCHARGE (KAF)1558169692
39BFTI1SNAKE-NEAR BLACKFOOT02-22-2021DISCHARGE (KAF)1517167091
40PIHI1PORTNEUF-AT POCATELLO02-22-2021DISCHARGE (KAF)6110061
41MILI1SNAKE-AT MILNER02-22-2021DISCHARGE (KAF)M631M
42HOTI1BRUNEAU-NEAR HOT SPRINGS02-22-2021DISCHARGE (KAF)10317060
43SWAI1SNAKE-BELOW SWAN FALLS02-22-2021DISCHARGE (KAF)1695268963
44HWRI1BIG LOST-AT HOWELL RANCH NEAR CHILLY02-22-2021DISCHARGE (KAF)6310759
45HALI1BIG WOOD-AT HAILEY02-22-2021DISCHARGE (KAF)8717250
46BIGI1BOISE-AT GLENWOOD BRIDGE02-22-2021DISCHARGE (KAF)35636099
47PARI1BOISE-NEAR PARMA02-22-2021DISCHARGE (KAF)40942297
48EMMI1PAYETTE-NEAR EMMETT02-22-2021DISCHARGE (KAF)879114577
49WSRI1WEISER-NEAR WEISER02-22-2021DISCHARGE (KAF)43343899
50WEII1SNAKE-AT WEISER02-22-2021DISCHARGE (KAF)3683539068
51WHBI1SALMON-AT WHITEBIRD02-22-2021DISCHARGE (KAF)3527461776
52TRYO3GRANDE RONDE-TROY02-22-2021DISCHARGE (KAF)16511249132
53ANAW1SNAKE-NEAR ANATONE02-22-2021DISCHARGE (KAF)90201271671
54ORFI1CLEARWATER-AT OROFINO02-22-2021DISCHARGE (KAF)44894214107
55SPDI1CLEARWATER-AT SPALDING02-22-2021DISCHARGE (KAF)67716553103
56TCHW1WALLA WALLA-NEAR TOUCHET02-22-2021DISCHARGE (KAF)228185123
57GIBO3UMATILLA-NEAR GIBBON02-22-2021DISCHARGE (KAF)13483163
58PDTO3UMATILLA-AT PENDLETON02-22-2021DISCHARGE (KAF)283184154
59MYKO3MCKAY CREEK-NEAR PILOT ROCK02-22-2021DISCHARGE (KAF)4035115
60UMAO3UMATILLA-NEAR UMATILLA02-22-2021DISCHARGE (KAF)253142178
61MONO3NF JOHN DAY-AT MONUMENT02-22-2021DISCHARGE (KAF)660627105
62SERO3JOHN DAY-AT SERVICE CK02-22-2021DISCHARGE (KAF)86990296
63MODO3DESCHUTES-AT MOODY NR BIGGS02-22-2021DISCHARGE (KAF)1423153393
64PITW1KLICKITAT-NEAR PITT02-22-2021DISCHARGE (KAF)52053298
65HODO3HOOD-NEAR TUCKER BRIDGE02-22-2021DISCHARGE (KAF)319270118
66UNDW1WHITE SALMON-NEAR UNDERWOOD02-22-2021DISCHARGE (KAF)35335799
67LYDM8KOOTENAI-LIBBY DAM02-22-2021INFLOW (KAF)3453388689
68HHWM8SF FLATHEAD-HUNGRY HORSE DAM02-22-2021INFLOW (KAF)15921584100
69KERM8FLATHEAD-SELI’Š KSANKA QLISPE’ DAM02-22-2021INFLOW (KAF)3863422791
70NOXM8CLARK FORK-NOXON RAPIDS DAM02-22-2021INFLOW (KAF)6567766686
71CABI1CLARK FORK-CABINET GORGE DAM02-22-2021INFLOW (KAF)7250804790
72ALFW1PEND OREILLE-ALBENI FALLS DAM02-22-2021INFLOW (KAF)8681968990
73COEI1COEUR D ALENE-COEUR D ALENE LAKE02-22-2021INFLOW (KAF)29022829103
74LLKW1SPOKANE-AT LONGLAKE02-22-2021INFLOW (KAF)3023339989
75GCDW1COLUMBIA-GRAND COULEE DAM02-22-2021INFLOW (KAF)282493165089
76CHJW1COLUMBIA-CHIEF JOSEPH DAM02-22-2021INFLOW (KAF)267822824895
77WELW1COLUMBIA-WELLS DAM02-22-2021INFLOW (KAF)289583021496
78CHDW1CHELAN-LAKE CHELAN DAM02-22-2021INFLOW (KAF)852739115
79RRHW1COLUMBIA-ROCKY REACH DAM02-22-2021INFLOW (KAF)297253065897
80WANW1COLUMBIA-WANAPUM DAM02-22-2021INFLOW (KAF)309933316593
81PRWW1COLUMBIA-PRIEST RAPIDS DAM02-22-2021INFLOW (KAF)309863375292
82KEDW1YAKIMA-KEECHELUS LAKE02-22-2021INFLOW (KAF)147107137
83KADW1KACHESS-KACHESS DAM02-22-2021INFLOW (KAF)131102129
84CLUW1CLE ELUM-CLE ELUM LAKE02-22-2021INFLOW (KAF)414325127
85BUDW1BUMPING-BUMPING LAKE DAM02-22-2021INFLOW (KAF)12097124
86RILW1TIETON-RIMROCK LAKE NEAR RIMROCK02-22-2021INFLOW (KAF)188161117
87IPDI1HENRYS FORK-ISLAND PARK DAM02-22-2021INFLOW (KAF)16218190
88JLKW4SNAKE-JACKSON LAKE AT DAM02-22-2021INFLOW (KAF)46956383
89PLDI1SF SNAKE-PALISADES DAM02-22-2021INFLOW (KAF)1778206286
90RIDI1WILLOW CREEK-RIRIE DAM02-22-2021INFLOW (KAF)404391
91AFRI1SNAKE-AMERICAN FALLS RESERVOIR02-22-2021INFLOW (KAF)2088234789
92MACI1BIG LOST-MACKAY RESERVOIR NEAR MACKAY02-22-2021INFLOW (KAF)5810954
93MAGI1BIG WOOD-MAGIC DAM02-22-2021INFLOW (KAF)6921732
94LWRI1LITTLE WOOD-LITTLE WOOD DAM02-22-2021INFLOW (KAF)336948
95OWYO3OWYHEE-OWYHEE DAM02-22-2021INFLOW (KAF)28236178
96ARAI1SF BOISE-ANDERSON RANCH DAM02-22-2021INFLOW (KAF)34245375
97LUCI1BOISE-LUCKY PEAK DAM02-22-2021INFLOW (KAF)1029MM
98WRMO3MALHEUR-WARM SPRINGS DAM02-22-2021INFLOW (KAF)636991
99BERO3MALHEUR-AGENCY VALLEY DAM02-22-2021INFLOW (KAF)365269
100BULO3BULLY CREEK-BULLY CREEK DAM02-22-2021INFLOW (KAF)168198
101CSDI1NF PAYETTE-CASCADE DAM02-22-2021INFLOW (KAF)42646392
102DEDI1DEADWOOD-NEAR LOWMAN02-22-2021INFLOW (KAF)9111182
103BRNI1SNAKE-BROWNLEE DAM02-22-2021INFLOW (KAF)4239582973
104DWRI1NF CLEARWATER-DWORSHAK DAM02-22-2021INFLOW (KAF)28182604108
105LGDW1SNAKE-LOWER GRANITE DAM02-22-2021INFLOW (KAF)157911927282
106LGSW1SNAKE-LITTLE GOOSE DAM02-22-2021INFLOW (KAF)157911930482
107LMNW1SNAKE-LOWER MONUMENTAL DAM02-22-2021INFLOW (KAF)159751950982
108IHDW1SNAKE-ICE HARBOR DAM02-22-2021INFLOW (KAF)159751938182
109MCDW1COLUMBIA-MCNARY DAM02-22-2021INFLOW (KAF)481385525887
110JDAO3COLUMBIA-JOHN DAY DAM02-22-2021INFLOW (KAF)505805783987
111TDAO3COLUMBIA-THE DALLES DAM02-22-2021INFLOW (KAF)509855497293
112BONO3COLUMBIA-BONNEVILLE DAM02-22-2021INFLOW (KAF)521515724191
113HOPI1PEND OREILLE-PEND OREILLE LAKE NR HOPE02-22-2021LAKE ELEVATION (FT)MMM
114BFEI1KOOTENAI-AT BONNERS FERRY02-22-2021STAGE (FT)MMM
115SJMI1ST JOE-AT ST MARIES02-22-2021STAGE (FT)MMM